EST,Max TemperatureF,Mean TemperatureF,Min TemperatureF,Max Dew PointF,MeanDew PointF,Min DewpointF,Max Humidity, Mean Humidity, Min Humidity, Max Sea Level PressureIn, Mean Sea Level PressureIn, Min Sea Level PressureIn, Max VisibilityMiles, Mean VisibilityMiles, Min VisibilityMiles, Max Wind SpeedMPH, Mean Wind SpeedMPH, Max Gust SpeedMPH,PrecipitationIn, CloudCover, Events, WindDirDegrees
2013-12-1,73,65,57,63,60,58,100,93,64,30.22,30.15,30.01,10,5,1,9,7,,0.00,6,,9
2013-12-2,73,64,55,63,58,52,100,88,48,30.01,29.94,29.85,10,5,0,9,2,,0.00,4,Fog,313
2013-12-3,77,66,55,62,58,53,96,78,54,30.01,29.96,29.91,10,10,6,8,2,,0.00,2,,151
2013-12-4,82,71,60,67,63,59,100,83,49,30.12,30.06,29.99,10,9,4,8,4,,0.00,1,,178
2013-12-5,81,72,62,67,64,61,100,83,54,30.20,30.14,30.11,10,8,1,10,2,,0.00,0,,135
2013-12-6,84,74,64,69,66,63,100,88,51,30.20,30.16,30.12,10,6,0,13,1,16,0.00,3,Fog,169
2013-12-7,82,74,66,67,65,62,97,80,51,30.27,30.21,30.17,10,9,2,7,1,,0.00,2,,142
2013-12-8,82,73,64,69,64,61,100,87,49,30.26,30.21,30.13,10,5,0,10,1,,0.00,3,Fog,140
2013-12-9,82,74,66,69,67,65,97,82,58,30.21,30.16,30.11,10,10,7,10,3,,0.00,1,,174
2013-12-10,82,73,64,70,65,62,94,79,52,30.23,30.16,30.09,10,10,9,16,8,23,0.00,4,Rain,262
2013-12-11,80,68,57,65,58,50,88,76,58,30.30,30.24,30.19,10,10,10,13,8,20,0.00,5,,21
2013-12-12,70,61,51,58,45,24,93,63,18,30.37,30.30,30.25,10,10,6,15,9,21,0.00,4,,19
2013-12-13,75,60,46,56,49,41,90,68,40,30.32,30.23,30.16,10,10,10,13,7,,0.00,0,,56
2013-12-14,80,72,63,68,64,56,87,76,62,30.13,30.04,29.94,10,10,10,14,7,22,0.00,4,,162
2013-12-15,73,65,57,70,62,53,100,85,65,30.15,29.99,29.88,10,9,1,15,9,22,0.50,7,Rain,287
2013-12-16,64,54,45,54,43,37,88,72,37,30.27,30.20,30.16,10,10,10,12,8,,0.00,1,,6
2013-12-17,69,56,43,48,43,39,93,68,39,30.29,30.24,30.18,10,10,9,9,5,,0.00,0,,354
2013-12-18,69,58,46,46,41,39,93,61,37,30.32,30.27,30.23,10,10,10,13,5,,0.00,0,,4
2013-12-19,73,58,43,55,49,41,93,73,41,30.31,30.26,30.21,10,10,10,7,3,,0.00,0,,66
2013-12-20,81,66,50,62,55,50,100,83,45,30.23,30.19,30.13,10,6,0,9,1,,0.00,1,Fog,122
2013-12-21,82,73,64,70,66,61,97,80,56,30.17,30.12,30.05,10,10,7,14,5,21,0.00,0,,136
2013-12-22,82,74,66,70,67,66,100,80,58,30.17,30.13,30.09,10,10,7,14,6,,0.00,4,,155
2013-12-23,84,76,68,71,68,66,100,86,55,30.19,30.15,30.09,10,7,1,13,6,18,0.00,5,,189
2013-12-24,73,60,48,72,53,31,96,75,27,30.30,30.21,30.12,10,10,7,15,8,21,0.00,5,Rain,346
2013-12-25,73,58,43,56,48,34,94,72,53,30.29,30.24,30.19,10,10,8,10,8,,0.00,2,,23
2013-12-26,75,65,55,60,56,54,100,88,57,30.26,30.22,30.14,10,7,1,15,8,20,0.00,6,,28
2013-12-27,66,60,55,63,59,53,96,89,83,30.30,30.25,30.21,10,8,2,13,8,,0.01,8,Rain,25
2013-12-28,75,68,62,70,66,60,100,91,79,30.26,30.18,30.04,10,8,2,12,7,,0.00,6,Rain,88
2013-12-29,75,70,62,72,68,61,100,91,82,30.03,29.97,29.91,10,8,2,13,7,21,0.08,7,Rain,236
2013-12-30,69,62,55,61,55,46,100,83,44,30.22,30.11,30.02,10,8,0,12,5,,0.00,4,Fog,354
2013-12-31,70,62,55,53,49,44,90,69,41,30.33,30.28,30.19,10,10,10,12,5,,0.00,2,,33